PBO Station Position Time Series. Reference Frame : NAM14
Format Version,1.1.0
4-character ID,CHWK
Station name,Chilliwack
Begin Date, 1998-11-17
End Date, 2019-10-07
Release Date, 2019-10-08
Reference position, 49.1566077214 North Latitude, -122.0084276681 East Longitude, 174.02799 meters elevation,
Date, North (mm), East (mm), Vertical (mm), North Std. Deviation (mm), East Std. Deviation (mm),              Vertical Std. Deviation (mm), Quality,
1998-11-17,-1.98, -16.97, 10.10, 44.86, 51.00, 96.94, repro,
1998-11-18,0.00, 0.00, 0.00, 2.60, 1.83, 8.34, repro,
1998-11-19,0.27, 0.00, -8.45, 2.75, 1.90, 8.73, repro,
1998-11-20,-2.23, -0.87, -0.88, 2.61, 1.85, 8.53, repro,
1998-11-21,-3.55, -1.46, 12.51, 2.74, 2.02, 9.09, repro,
1998-11-22,-2.07, 0.28, 4.65, 2.67, 1.91, 8.68, repro,
1998-11-23,-0.61, -0.95, 1.68, 2.58, 1.83, 8.37, repro,
1998-11-24,-2.62, -1.41, -2.78, 2.47, 1.79, 8.10, repro,
1998-11-25,0.60, -0.99, 3.68, 2.53, 1.82, 8.23, repro,
1998-11-26,-3.12, -0.48, 2.59, 2.56, 1.84, 8.31, repro,
1998-11-27,-2.80, -0.54, 0.96, 2.67, 1.87, 8.57, repro,
1998-11-28,-0.92, -0.69, -7.04, 2.63, 1.89, 8.59, repro,
1998-11-29,-1.90, -2.01, -5.86, 2.69, 1.92, 8.80, repro,
1998-11-30,-1.46, -0.87, -3.37, 2.82, 2.02, 9.02, repro,
1998-12-01,-0.82, -1.07, -10.56, 2.53, 1.88, 8.51, repro,
1998-12-02,-2.42, 1.07, 2.21, 2.57, 1.84, 8.38, repro,
1998-12-03,-1.14, -0.84, -4.56, 2.54, 1.81, 8.34, repro,
1998-12-04,-2.80, -0.36, -9.58, 2.73, 1.92, 8.85, repro,
1998-12-05,-1.39, -0.26, -12.25, 2.73, 1.91, 8.70, repro,
1998-12-06,-0.69, 0.18, -10.26, 2.67, 1.93, 8.80, repro,
1998-12-07,-1.49, -0.29, -4.13, 2.65, 1.93, 8.85, repro,
1998-12-08,-1.86, 0.21, -11.53, 2.91, 2.08, 9.42, repro,
1998-12-09,-0.68, 0.57, -25.55, 2.63, 1.90, 8.57, repro,
1998-12-10,-4.82, 1.46, -5.24, 2.61, 1.91, 8.73, repro,
1998-12-11,-1.11, -1.26, -13.38, 2.84, 2.11, 9.52, repro,
1998-12-12,-1.87, -2.08, -7.75, 3.32, 2.30, 10.61, repro,
1998-12-13,-0.66, -1.82, -6.44, 2.76, 2.01, 8.99, repro,
1998-12-14,-1.54, 1.88, -12.60, 2.72, 1.98, 9.21, repro,
1998-12-15,-2.36, 2.66, -21.04, 2.73, 2.00, 9.25, repro,
1998-12-16,-0.98, 0.86, -21.38, 2.66, 1.92, 8.77, repro,
1998-12-17,0.35, 1.70, -12.78, 2.51, 1.82, 8.20, repro,
1998-12-18,1.94, -0.46, -16.27, 2.85, 2.05, 9.52, repro,
1998-12-19,1.74, -0.06, -19.89, 2.61, 1.96, 8.71, repro,
1998-12-20,-0.40, -0.41, -6.17, 2.60, 1.90, 8.64, repro,
1998-12-21,-3.56, -1.70, -20.58, 2.96, 2.19, 10.08, repro,
1998-12-22,-0.74, -0.05, -20.22, 2.74, 2.05, 9.41, repro,
1998-12-23,-0.49, -0.55, -17.30, 2.63, 1.92, 8.67, repro,
1998-12-24,-0.47, -2.07, -24.93, 2.75, 2.05, 9.41, repro,
1998-12-25,-0.21, 0.29, -14.71, 3.13, 2.34, 11.09, repro,
1998-12-26,-0.16, 0.04, -3.25, 2.62, 1.92, 8.69, repro,
1998-12-27,-1.06, -0.72, -11.08, 2.75, 2.06, 9.51, repro,
1998-12-28,-2.82, 1.14, -4.94, 2.69, 1.98, 8.97, repro,
1998-12-29,-1.07, 0.67, -9.59, 2.87, 2.08, 9.59, repro,
1998-12-30,0.78, 1.46, -22.60, 2.99, 2.23, 10.00, repro,
1998-12-31,-0.73, 0.35, -4.55, 2.79, 1.96, 9.02, repro,
1999-01-01,0.62, -1.04, -22.67, 2.74, 2.02, 9.09, repro,
1999-01-02,0.48, 0.65, -19.24, 2.86, 2.06, 9.52, repro,
1999-01-03,-0.40, -0.08, -16.75, 3.98, 3.07, 14.35, repro,
1999-01-04,-3.01, -1.86, -16.59, 3.05, 2.26, 10.32, repro,
1999-01-05,0.01, -0.60, -3.83, 2.69, 2.01, 9.08, repro,
1999-01-06,-0.35, 0.56, -16.37, 2.61, 1.94, 8.88, repro,
1999-01-07,0.35, 1.01, -19.76, 2.59, 1.89, 8.68, repro,
1999-01-08,-0.60, 1.27, -20.21, 2.50, 1.81, 8.24, repro,
1999-01-09,-0.08, 1.36, -23.55, 2.65, 1.88, 8.52, repro,
1999-01-10,0.65, 3.13, -20.41, 2.68, 1.94, 8.98, repro,
1999-01-11,-0.21, 2.54, -15.29, 2.69, 1.91, 8.80, repro,
1999-01-12,-1.32, 0.84, -4.42, 2.67, 1.96, 8.77, repro,
1999-01-13,0.99, 1.30, -12.16, 2.79, 1.93, 8.96, repro,
1999-01-14,-2.01, 0.08, -8.21, 2.71, 1.96, 8.79, repro,
1999-01-15,1.12, 2.30, -7.86, 2.69, 1.94, 8.90, repro,
1999-01-16,-0.21, 0.62, -7.44, 2.52, 1.82, 8.20, repro,
1999-01-17,-0.08, 0.89, -16.98, 2.57, 1.86, 8.34, repro,
1999-01-18,-0.48, 0.62, -4.02, 2.52, 1.81, 8.15, repro,
1999-01-19,-0.69, 0.33, -12.63, 2.54, 1.82, 8.21, repro,
1999-01-20,0.32, -0.19, -12.52, 2.64, 1.88, 8.49, repro,
1999-01-21,-0.82, 0.90, -12.36, 2.60, 1.84, 8.38, repro,
1999-01-22,0.86, 0.92, -16.73, 2.58, 1.90, 8.61, repro,
1999-01-23,-0.15, 0.93, -8.04, 2.59, 1.84, 8.38, repro,
1999-01-24,-0.60, 1.39, -18.08, 2.68, 1.88, 8.60, repro,
1999-01-25,-0.79, 0.99, -12.45, 2.74, 1.94, 8.88, repro,
1999-01-26,-0.27, 0.28, -19.91, 2.72, 1.88, 8.69, repro,
1999-01-27,-0.92, 0.34, -18.67, 2.78, 1.88, 8.75, repro,
1999-01-28,-0.24, -0.19, -12.28, 2.59, 1.86, 8.46, repro,
1999-01-29,-0.29, -0.01, -9.08, 2.68, 1.88, 8.54, repro,
1999-01-30,-2.19, 1.42, -6.30, 2.95, 2.08, 9.60, repro,
1999-01-31,-0.14, 0.05, -11.52, 2.82, 2.06, 9.14, repro,
1999-02-01,0.67, -0.03, -10.03, 2.46, 1.78, 8.00, repro,
1999-02-02,-1.89, 1.19, -7.43, 2.63, 1.85, 8.36, repro,
1999-02-03,-2.42, 3.61, -5.23, 2.79, 2.02, 8.95, repro,
1999-02-04,0.25, 0.31, -4.65, 2.73, 1.96, 8.76, repro,
1999-02-05,-2.54, 0.79, -14.48, 2.67, 1.91, 8.64, repro,
1999-02-06,0.23, -1.63, 0.73, 2.74, 1.99, 9.27, repro,
1999-02-07,-3.39, 0.61, -4.99, 2.77, 1.96, 8.88, repro,
1999-02-08,-2.07, 1.79, -7.22, 2.62, 1.91, 8.59, repro,
1999-02-09,1.05, 1.27, -12.43, 2.86, 2.00, 9.18, repro,
1999-02-10,-1.02, 0.91, -16.07, 2.69, 1.92, 8.67, repro,
1999-02-11,-0.17, 1.27, -16.59, 2.84, 1.96, 9.12, repro,
1999-02-12,-1.08, 0.32, -18.64, 2.79, 1.91, 8.84, repro,
1999-02-13,0.44, 0.41, -23.57, 2.75, 1.95, 8.71, repro,
1999-02-14,0.48, 1.32, -31.64, 2.78, 1.94, 8.91, repro,
1999-02-15,0.66, 0.22, -18.79, 2.77, 1.93, 8.91, repro,
1999-02-16,-0.22, -0.25, -14.54, 4.34, 3.26, 15.23, repro,
1999-02-17,0.12, -0.24, -7.39, 2.66, 1.87, 8.57, repro,
1999-02-18,-1.03, -0.67, -13.30, 2.65, 1.97, 9.08, repro,
1999-02-19,-0.91, 0.94, -9.78, 2.65, 1.90, 8.55, repro,
1999-02-20,-1.20, 0.53, -25.99, 2.72, 2.00, 9.07, repro,
1999-02-21,-0.95, 2.34, -24.44, 2.64, 1.88, 8.55, repro,
1999-02-22,-1.53, -1.13, -15.84, 2.61, 1.87, 8.41, repro,
1999-02-23,-1.74, 0.35, -23.34, 2.51, 1.86, 8.24, repro,
1999-02-24,-0.32, 0.09, -16.46, 2.47, 1.80, 8.01, repro,
1999-02-25,-0.65, 0.82, -17.80, 2.48, 1.82, 8.12, repro,
1999-02-26,1.16, 1.51, -15.88, 2.68, 1.92, 8.69, repro,
1999-02-27,-0.08, 1.05, -17.66, 2.60, 1.85, 8.30, repro,
1999-02-28,-1.63, -0.83, -16.83, 2.59, 1.90, 8.60, repro,
1999-03-01,0.59, 1.32, -28.86, 2.69, 1.95, 8.80, repro,
1999-03-02,1.41, -0.04, -32.13, 2.56, 1.84, 8.22, repro,
1999-03-03,4.78, -0.21, -28.35, 2.53, 1.85, 8.28, repro,
1999-03-04,0.01, 0.45, -27.68, 2.58, 1.85, 8.25, repro,
1999-03-05,2.16, -0.88, -29.92, 2.59, 1.88, 8.53, repro,
1999-03-06,0.93, 0.37, -35.00, 2.53, 1.84, 8.33, repro,
1999-03-07,0.36, 1.18, -26.58, 2.58, 1.88, 8.52, repro,
1999-03-08,1.48, 0.72, -20.75, 2.68, 1.94, 8.96, repro,
1999-03-09,-0.51, 0.80, -26.06, 2.61, 1.86, 8.39, repro,
1999-03-10,1.11, 0.55, -35.35, 2.67, 1.96, 8.92, repro,
1999-03-11,1.23, 1.79, -23.99, 2.49, 1.81, 8.11, repro,
1999-03-12,-1.75, 2.19, -16.24, 3.54, 2.50, 11.27, repro,
1999-03-13,0.68, -4.31, -18.87, 5.13, 3.66, 16.84, repro,
1999-03-14,1.69, 1.06, -23.93, 2.61, 1.87, 8.35, repro,
1999-03-15,0.31, 2.05, -17.25, 2.65, 1.92, 8.62, repro,
1999-03-16,0.92, 2.38, -23.96, 2.80, 2.00, 9.10, repro,
1999-03-17,0.64, 0.32, -27.76, 2.67, 1.86, 8.45, repro,
1999-03-18,1.51, 1.38, -36.08, 2.87, 2.12, 9.82, repro,
1999-03-19,3.25, 2.40, -27.26, 2.86, 2.08, 9.35, repro,
1999-03-20,1.02, 1.80, -21.11, 2.70, 1.94, 8.74, repro,
1999-03-21,0.70, 0.98, -8.10, 2.57, 1.83, 8.29, repro,
1999-03-22,-0.24, 0.65, -23.52, 2.68, 1.91, 8.71, repro,
1999-03-23,0.54, 1.38, -18.19, 2.63, 1.93, 8.64, repro,
1999-03-24,2.88, 1.57, -16.82, 2.84, 2.08, 9.39, repro,
1999-03-25,0.70, 1.17, -20.72, 2.77, 1.99, 9.09, repro,
1999-03-26,2.52, 2.75, -16.01, 2.69, 1.98, 8.93, repro,
1999-03-27,1.35, 3.06, -11.72, 2.54, 1.83, 8.14, repro,
1999-03-28,-0.42, 2.23, -20.88, 2.69, 1.99, 8.93, repro,
1999-03-29,2.70, 0.33, -24.82, 2.62, 1.91, 8.50, repro,
1999-03-30,1.61, 1.38, -24.97, 2.65, 1.93, 8.69, repro,
1999-03-31,0.94, 0.71, -28.57, 2.91, 2.05, 9.22, repro,
1999-04-01,0.57, 2.78, -14.99, 2.62, 1.91, 8.58, repro,
1999-04-02,0.10, 1.95, -22.42, 2.91, 2.04, 8.95, repro,
1999-04-03,2.16, 2.29, -27.59, 2.60, 1.88, 8.38, repro,
1999-04-04,2.44, 1.21, -27.18, 2.61, 1.88, 8.52, repro,
1999-04-05,3.23, 0.73, -24.19, 2.63, 1.92, 8.58, repro,
1999-04-06,3.39, 0.83, -22.77, 2.66, 1.89, 8.49, repro,
1999-04-07,2.46, 2.92, -13.28, 2.68, 1.96, 8.62, repro,
1999-04-08,3.72, 3.42, -18.30, 2.56, 1.87, 8.30, repro,
1999-04-09,3.85, 1.99, -24.66, 2.58, 1.90, 8.48, repro,
1999-04-10,4.25, 1.95, -23.06, 2.52, 1.86, 8.24, repro,
1999-04-11,3.69, 0.67, -17.88, 2.53, 1.84, 8.27, repro,
1999-04-12,1.92, 2.18, -16.92, 2.56, 1.89, 8.42, repro,
1999-04-13,2.56, 1.33, -23.31, 2.55, 1.86, 8.25, repro,
1999-04-14,3.10, 2.68, -31.73, 2.62, 1.91, 8.62, repro,
1999-04-15,3.75, 2.49, -27.20, 2.73, 1.96, 8.66, repro,
1999-04-16,2.32, 1.23, -24.88, 2.59, 1.89, 8.47, repro,
1999-04-17,2.08, 1.98, -16.40, 2.87, 2.05, 9.23, repro,
1999-04-18,1.55, 0.82, -18.25, 2.51, 1.85, 8.21, repro,
1999-04-19,1.71, 1.64, -20.26, 2.53, 1.82, 8.14, repro,
1999-04-20,2.41, 0.55, -11.84, 2.62, 1.88, 8.60, repro,
1999-04-21,2.84, 0.77, -22.66, 2.58, 1.89, 8.61, repro,
1999-04-22,4.31, 0.79, -22.97, 2.66, 1.91, 8.61, repro,
1999-04-23,1.48, 1.08, -22.79, 2.60, 1.95, 8.70, repro,
1999-04-24,1.82, 1.06, -20.04, 2.52, 1.83, 8.23, repro,
1999-04-25,3.22, 2.08, -14.23, 3.61, 2.54, 11.55, repro,
1999-04-26,2.86, 3.42, -12.03, 3.02, 2.17, 10.19, repro,
1999-04-27,3.92, 2.19, -11.94, 2.57, 1.88, 8.39, repro,
1999-04-28,4.32, 1.43, -24.28, 2.56, 1.88, 8.58, repro,
1999-04-29,2.28, 2.92, -22.76, 2.59, 1.90, 8.61, repro,
1999-04-30,2.70, 1.99, -16.63, 2.58, 1.88, 8.52, repro,
1999-05-01,3.16, 1.33, -15.20, 2.55, 1.84, 8.39, repro,
1999-05-02,2.70, 2.02, -17.41, 2.56, 1.86, 8.48, repro,
1999-05-03,5.06, 1.95, -14.10, 2.76, 2.00, 8.84, repro,
1999-05-04,3.18, 3.15, -3.95, 2.68, 1.96, 8.88, repro,
1999-05-05,2.82, 2.69, -12.52, 2.79, 2.03, 9.22, repro,
1999-05-06,1.61, 1.54, -13.98, 2.65, 1.89, 8.62, repro,
1999-05-07,2.57, 3.53, -12.17, 2.59, 1.85, 8.46, repro,
1999-05-08,2.69, 1.98, -29.45, 2.63, 1.87, 8.63, repro,
1999-05-09,2.41, 2.46, -20.66, 2.68, 1.91, 8.82, repro,
1999-05-10,3.41, 1.88, -15.84, 2.68, 1.91, 8.77, repro,
1999-05-11,2.64, 0.84, -17.20, 2.75, 2.00, 9.08, repro,
1999-05-12,4.34, 1.05, -17.37, 2.79, 2.03, 9.17, repro,
1999-05-13,3.97, 1.43, -16.10, 2.60, 1.85, 8.51, repro,
1999-05-14,3.81, 2.49, -18.23, 2.61, 1.92, 8.70, repro,
1999-05-15,2.40, 2.37, -23.99, 2.65, 1.90, 8.69, repro,
1999-05-16,2.05, 2.77, -24.64, 2.69, 1.94, 8.93, repro,
1999-05-17,1.93, 2.12, -22.73, 2.74, 1.97, 9.05, repro,
1999-05-18,2.90, 1.33, -15.30, 2.61, 1.87, 8.63, repro,
1999-05-19,1.42, 2.79, -17.94, 2.77, 2.00, 9.14, repro,
1999-05-20,4.58, 0.83, -21.90, 2.65, 1.89, 8.67, repro,
1999-05-21,2.20, 0.85, -24.92, 2.62, 1.90, 8.62, repro,
1999-05-22,1.73, 2.18, -15.23, 2.82, 1.98, 9.24, repro,
1999-05-23,1.90, 1.86, -16.12, 2.70, 1.97, 9.08, repro,
1999-05-24,3.14, 2.59, -20.25, 2.67, 1.93, 8.82, repro,
1999-05-25,4.30, 2.97, -13.03, 2.63, 1.91, 8.50, repro,
1999-05-26,2.75, 2.31, -20.20, 2.82, 2.02, 9.25, repro,
1999-05-27,2.04, 1.07, -9.63, 2.57, 1.84, 8.35, repro,
1999-05-28,2.35, -0.03, -9.33, 2.62, 1.88, 8.56, repro,
1999-05-29,1.83, 1.82, -22.03, 2.59, 1.81, 8.32, repro,
1999-05-30,1.49, 1.10, -27.16, 2.63, 1.89, 8.41, repro,
1999-05-31,1.01, 2.31, -21.22, 2.74, 1.94, 8.91, repro,
1999-06-01,2.76, -0.25, 2.64, 2.72, 1.92, 8.78, repro,
1999-06-02,2.64, 1.72, -11.64, 2.67, 1.86, 8.68, repro,
1999-06-03,3.07, 0.14, -2.52, 2.83, 2.02, 9.02, repro,
1999-06-04,2.47, 0.60, -8.59, 2.65, 1.85, 8.48, repro,
1999-06-05,0.40, 2.70, -1.67, 2.71, 1.99, 8.77, repro,
1999-06-06,2.43, 1.10, -6.94, 2.57, 1.81, 8.26, repro,
1999-06-07,0.69, 0.49, -18.46, 2.96, 2.12, 9.70, repro,
1999-06-08,3.96, 1.27, -12.56, 2.60, 1.88, 8.41, repro,
1999-06-09,2.50, 1.62, -2.87, 2.64, 1.89, 8.52, repro,
1999-06-10,2.64, 2.42, -3.77, 2.66, 1.89, 8.67, repro,
1999-06-11,3.25, 2.84, -8.98, 2.80, 1.96, 9.13, repro,
1999-06-12,2.58, 3.01, -6.29, 2.77, 1.99, 8.95, repro,
1999-06-13,4.35, 2.36, -12.45, 2.60, 1.85, 8.40, repro,
1999-06-14,4.62, 0.78, -15.96, 2.87, 1.90, 8.92, repro,
1999-06-15,2.34, 1.58, -21.78, 2.59, 1.84, 8.41, repro,
1999-06-16,1.71, 3.50, -12.01, 2.57, 1.83, 8.39, repro,
1999-06-17,2.70, 1.16, -4.80, 2.67, 1.89, 8.50, repro,
1999-06-18,1.72, 1.46, -16.06, 2.69, 1.95, 8.72, repro,
1999-06-19,1.73, 2.62, -7.27, 2.71, 1.89, 8.61, repro,
1999-06-20,2.22, 1.68, -4.55, 2.56, 1.82, 8.32, repro,
1999-06-21,2.62, 1.63, -10.02, 2.58, 1.84, 8.31, repro,
1999-06-22,0.11, 1.49, -1.91, 2.70, 1.87, 8.69, repro,
1999-06-23,2.25, 0.36, -3.96, 2.78, 1.92, 8.85, repro,
1999-06-24,1.81, 1.28, -9.83, 2.63, 1.88, 8.52, repro,
1999-06-25,2.62, 0.91, 0.46, 2.71, 1.91, 8.64, repro,
1999-06-26,3.66, 1.76, -7.90, 2.76, 1.92, 8.69, repro,
1999-06-27,-0.06, 0.72, -0.45, 2.63, 1.86, 8.60, repro,
1999-06-28,2.19, 1.20, -7.91, 2.76, 1.93, 8.74, repro,
1999-06-29,1.40, 0.94, -10.82, 2.83, 2.03, 9.23, repro,
1999-06-30,0.66, 2.20, -3.54, 2.61, 1.84, 8.46, repro,
1999-07-01,3.22, 0.86, 2.06, 2.78, 2.00, 9.29, repro,
1999-07-02,2.14, 2.15, -1.48, 2.66, 1.87, 8.75, repro,
1999-07-03,1.96, 1.65, 1.65, 2.65, 1.86, 8.67, repro,
1999-07-04,2.06, 2.64, -4.13, 2.60, 1.84, 8.40, repro,
1999-07-05,0.16, 2.47, -8.86, 2.67, 1.89, 8.82, repro,
1999-07-06,2.33, 3.01, 3.89, 2.71, 1.93, 8.93, repro,
1999-07-07,3.00, 3.14, -3.01, 2.71, 1.87, 8.66, repro,
1999-07-08,1.91, 4.00, -5.87, 2.75, 1.88, 8.75, repro,
1999-07-09,0.79, 2.71, -5.37, 2.79, 1.95, 9.02, repro,
1999-07-10,3.69, 3.93, -2.90, 2.73, 1.89, 8.78, repro,
1999-07-11,1.25, 1.53, -10.63, 2.76, 1.92, 8.95, repro,
1999-07-12,1.76, 2.89, -10.66, 2.68, 1.88, 8.64, repro,
1999-07-13,3.21, -0.47, -12.15, 2.72, 1.86, 8.66, repro,
1999-07-14,1.52, 0.28, -7.99, 2.59, 1.82, 8.42, repro,
1999-07-15,1.27, 1.94, -3.19, 2.62, 1.84, 8.59, repro,
1999-07-16,0.63, 1.89, -0.25, 2.72, 1.87, 8.74, repro,
1999-07-17,3.10, 1.72, -12.43, 2.62, 1.80, 8.48, repro,
1999-07-18,2.90, 1.67, -10.92, 2.67, 1.83, 8.53, repro,
1999-07-19,0.97, 1.90, -12.08, 2.73, 1.88, 8.69, repro,
1999-07-20,0.29, 0.67, 1.06, 2.73, 1.90, 8.88, repro,
1999-07-21,-1.06, 0.17, -2.29, 2.64, 1.85, 8.60, repro,
1999-07-22,-1.03, 0.35, -16.30, 2.69, 1.87, 8.72, repro,
1999-07-23,-0.94, 0.81, 1.03, 2.67, 1.87, 8.71, repro,
1999-07-24,-1.33, 1.61, -6.80, 2.80, 1.92, 8.93, repro,
1999-07-25,0.71, 1.39, -9.42, 2.77, 1.98, 9.11, repro,
1999-07-26,-0.27, 1.92, -3.62, 2.81, 2.00, 8.98, repro,
1999-07-27,-0.69, 2.11, -0.44, 2.66, 1.89, 8.66, repro,
1999-07-28,0.55, 0.28, -2.38, 2.67, 1.87, 8.67, repro,
1999-07-29,0.42, 2.35, 10.38, 2.79, 1.96, 9.08, repro,
1999-07-30,-1.74, 3.43, -0.76, 2.94, 2.07, 9.46, repro,
1999-07-31,1.48, 1.06, -5.76, 2.64, 1.87, 8.49, repro,
1999-08-01,0.22, 1.99, -7.07, 2.63, 1.84, 8.50, repro,
1999-08-02,1.33, 1.31, -13.58, 2.61, 1.86, 8.47, repro,
1999-08-03,1.50, 1.91, -12.57, 2.75, 1.93, 8.72, repro,
1999-08-04,-0.64, 0.26, -2.83, 2.63, 1.87, 8.54, repro,
1999-08-05,0.84, 1.28, -5.61, 2.73, 1.89, 8.59, repro,
1999-08-06,2.08, 5.16, -12.53, 2.78, 1.95, 8.93, repro,
1999-08-07,0.67, 3.86, 0.26, 2.62, 1.85, 8.43, repro,
1999-08-08,0.20, 2.80, -16.92, 2.71, 1.91, 8.67, repro,
1999-08-09,1.56, 2.48, -9.72, 3.02, 2.15, 9.75, repro,
1999-08-10,0.83, 1.69, -8.70, 2.90, 2.07, 9.26, repro,
1999-08-11,0.44, 4.28, -17.86, 2.68, 1.88, 8.56, repro,
1999-08-12,0.45, 4.62, -11.52, 2.66, 1.87, 8.51, repro,
1999-08-13,1.80, 4.01, -9.87, 2.76, 1.93, 8.89, repro,
1999-08-14,-0.04, 2.33, -12.73, 2.58, 1.83, 8.38, repro,
1999-08-15,2.46, 2.49, -15.38, 2.80, 1.92, 8.85, repro,
1999-08-16,-1.29, 3.43, -15.78, 2.74, 1.93, 8.75, repro,
1999-08-17,0.81, 4.10, -12.32, 2.70, 1.94, 8.76, repro,
1999-08-18,-0.74, 4.13, -7.04, 2.76, 1.92, 8.86, repro,
1999-08-19,0.21, 4.72, -1.02, 2.64, 1.90, 8.56, repro,
1999-08-20,-0.82, 4.75, -3.49, 2.80, 2.01, 9.20, repro,
1999-08-21,2.42, 4.66, -17.56, 2.61, 1.81, 8.33, repro,
1999-08-22,2.66, 1.83, -12.60, 2.80, 1.95, 9.09, repro,
1999-08-23,0.91, 3.75, -3.46, 2.89, 2.01, 9.14, repro,
1999-08-24,-1.52, 3.02, -4.82, 2.80, 1.94, 8.95, repro,
1999-08-25,0.72, 7.69, 2.34, 2.69, 1.88, 8.62, repro,
1999-08-26,-0.36, 4.12, 4.61, 2.86, 1.95, 8.92, repro,
1999-08-27,1.04, 3.70, 1.21, 2.69, 1.89, 8.71, repro,
1999-08-28,-0.75, 2.82, 3.40, 2.69, 1.90, 8.71, repro,
1999-08-29,1.62, 4.92, 2.67, 2.73, 2.02, 11.01, repro,
1999-08-30,0.90, 3.37, -16.33, 2.81, 1.99, 9.19, repro,
1999-08-31,3.63, 2.67, -3.47, 2.82, 1.98, 9.19, repro,
1999-09-01,0.66, 4.70, -10.08, 2.87, 2.03, 9.03, repro,
1999-09-02,1.94, 2.85, -11.76, 2.81, 2.02, 9.23, repro,
1999-09-03,2.09, 3.21, -6.95, 3.09, 2.19, 9.88, repro,
1999-09-04,0.91, 3.40, -3.71, 3.02, 2.01, 9.32, repro,
1999-09-05,1.10, 4.39, -3.33, 3.02, 2.09, 9.62, repro,
1999-09-06,1.07, 5.62, 2.33, 2.74, 1.89, 8.67, repro,
1999-09-07,2.92, 4.34, -2.57, 2.97, 1.97, 9.01, repro,
1999-09-08,1.88, 3.09, -6.00, 2.87, 1.92, 8.97, repro,
1999-09-09,2.54, 3.04, -9.87, 3.15, 2.18, 9.49, repro,
1999-09-10,0.38, 2.85, -6.79, 2.67, 1.91, 8.72, repro,
1999-09-11,-0.78, 4.80, -14.41, 2.96, 2.03, 9.11, repro,
1999-09-12,3.55, 4.20, -14.88, 2.90, 2.01, 9.06, repro,
1999-09-13,0.98, 1.82, -12.51, 2.92, 2.01, 9.43, repro,
1999-09-14,2.49, 3.82, -4.29, 2.89, 2.04, 9.19, repro,
1999-09-15,0.18, 2.63, -5.67, 2.75, 1.92, 8.66, repro,
1999-09-16,1.68, 4.45, -1.85, 2.90, 2.06, 9.16, repro,
1999-09-17,2.36, 3.36, -7.76, 2.95, 2.06, 9.21, repro,
1999-09-18,1.80, 4.55, -4.73, 2.88, 2.02, 8.89, repro,
1999-09-19,1.32, 3.70, 1.94, 2.85, 1.93, 8.98, repro,
1999-09-20,1.59, 3.63, -2.13, 2.78, 1.99, 8.88, repro,
1999-09-21,0.92, 3.49, -10.56, 2.90, 2.08, 9.14, repro,
1999-09-22,1.41, 3.79, -13.60, 3.22, 2.24, 9.96, repro,
1999-09-23,2.95, 2.70, -18.20, 3.69, 2.77, 12.45, repro,
1999-09-24,0.15, 1.97, 3.06, 2.98, 2.08, 9.65, repro,
1999-09-25,0.48, 2.64, 4.68, 2.87, 2.00, 9.17, repro,
1999-09-26,2.39, 3.78, -0.33, 2.98, 2.06, 9.34, repro,
1999-09-27,0.99, 2.34, -13.17, 3.12, 2.23, 10.14, repro,
1999-09-28,0.15, 2.23, -12.18, 2.92, 2.04, 9.13, repro,
1999-09-29,0.66, 2.67, -5.74, 3.29, 2.43, 10.47, repro,
1999-09-30,-0.09, 3.20, -12.58, 3.08, 2.23, 9.77, repro,
1999-10-01,-0.40, 2.00, -20.79, 3.74, 2.75, 12.10, repro,
1999-10-02,3.07, 2.33, -0.81, 3.00, 2.13, 9.87, repro,
1999-10-03,2.39, 1.70, 2.65, 3.08, 2.13, 9.76, repro,
1999-10-04,0.97, 1.66, -9.44, 3.06, 2.19, 9.72, repro,
1999-10-05,1.26, 2.66, 2.35, 2.89, 2.08, 9.41, repro,
1999-10-06,1.69, 2.30, 2.17, 2.93, 2.11, 9.74, repro,
1999-10-07,-0.06, 3.44, -2.14, 2.99, 2.03, 9.30, repro,
1999-10-08,1.41, 3.85, -2.40, 2.89, 2.07, 9.35, repro,
1999-10-09,1.53, 3.37, -2.40, 2.92, 2.05, 9.23, repro,
1999-10-10,1.11, 3.19, -16.50, 2.80, 1.97, 8.97, repro,
1999-10-11,-0.42, 1.67, -3.74, 2.87, 2.03, 9.18, repro,
1999-10-12,0.05, 2.69, -7.37, 2.94, 2.09, 9.46, repro,
1999-10-13,2.13, 4.52, 0.47, 2.76, 1.96, 8.93, repro,
1999-10-14,3.39, 4.61, -0.40, 2.89, 1.99, 9.05, repro,
1999-10-15,0.62, 2.70, 3.18, 2.87, 2.08, 9.34, repro,
1999-10-16,-0.41, 1.06, -15.18, 2.70, 1.92, 8.72, repro,
1999-10-17,-2.02, 0.32, -6.43, 2.80, 1.96, 8.88, repro,
1999-10-18,0.83, 2.09, -10.74, 2.91, 2.04, 9.17, repro,
1999-10-19,-0.74, -0.78, -7.81, 2.88, 1.95, 9.06, repro,
1999-10-20,0.73, 0.00, -9.43, 2.80, 1.98, 9.24, repro,
1999-10-21,-0.84, 0.86, -17.42, 3.35, 2.57, 11.19, repro,
1999-10-22,-2.46, 0.92, -10.78, 3.49, 2.54, 11.77, repro,
1999-10-23,2.13, -0.77, -10.89, 2.76, 1.99, 9.16, repro,
1999-10-24,0.60, 1.63, -7.30, 2.82, 2.03, 9.46, repro,
1999-10-25,-0.21, -0.33, -4.97, 2.79, 2.07, 9.58, repro,
1999-10-26,-2.22, 0.80, 8.11, 2.66, 1.85, 8.78, repro,
1999-10-27,-2.59, -0.56, -4.19, 2.73, 1.92, 8.97, repro,
1999-10-28,-2.02, 1.00, -2.26, 2.78, 1.95, 9.05, repro,
1999-10-29,0.29, 0.54, -2.19, 2.77, 1.93, 9.25, repro,
1999-10-30,1.14, 1.72, -10.52, 2.62, 1.84, 8.60, repro,
1999-10-31,0.83, 0.14, 1.91, 2.93, 2.01, 9.60, repro,
1999-11-01,-0.34, 1.86, -22.58, 2.79, 1.87, 8.83, repro,
1999-11-02,0.27, 0.70, -6.50, 2.74, 1.88, 9.02, repro,
1999-11-03,0.20, -0.19, -3.99, 2.99, 1.99, 9.24, repro,
1999-11-04,1.02, 0.75, -2.71, 2.75, 1.88, 8.85, repro,
1999-11-05,2.72, 0.21, -3.38, 2.74, 1.90, 8.88, repro,
1999-11-06,0.58, 2.17, -4.84, 2.79, 1.95, 9.38, repro,
1999-11-07,2.83, 0.03, -8.45, 2.69, 1.84, 8.69, repro,
1999-11-08,-0.86, 0.71, 6.90, 2.92, 1.96, 9.15, repro,
1999-11-09,-0.82, 0.64, -3.23, 2.78, 1.87, 8.85, repro,
1999-11-10,1.26, -0.60, -5.42, 2.74, 1.96, 9.28, repro,
1999-11-11,1.96, 0.40, -3.78, 2.68, 1.89, 9.02, repro,
1999-11-12,0.11, 0.56, -2.16, 3.28, 2.38, 10.96, repro,
1999-11-13,-0.88, 0.92, -5.39, 2.74, 1.89, 8.98, repro,
1999-11-14,-0.67, 1.67, -9.58, 2.76, 1.90, 9.16, repro,
1999-11-15,0.79, 1.74, -14.74, 2.84, 1.96, 9.18, repro,
1999-11-16,1.10, 2.88, -5.19, 2.99, 2.19, 10.30, repro,
1999-11-17,1.10, 1.10, 1.04, 3.18, 2.37, 11.05, repro,
1999-11-18,-1.35, 2.12, -10.34, 3.39, 2.39, 11.59, repro,
1999-11-19,-1.34, 3.50, -3.29, 3.07, 2.21, 10.60, repro,
1999-11-20,-2.26, 0.98, -8.26, 2.83, 2.07, 9.45, repro,
1999-11-21,-0.78, 1.89, -4.62, 3.44, 2.49, 11.68, repro,
1999-11-22,-1.09, 2.49, -2.67, 2.95, 2.01, 9.37, repro,
1999-11-23,-1.30, 1.67, -18.80, 3.75, 2.58, 12.36, repro,
1999-11-24,-0.16, 2.90, -3.69, 3.48, 2.58, 12.19, repro,
1999-11-25,1.30, 2.63, -2.17, 3.17, 2.39, 11.11, repro,
1999-11-26,-0.40, 0.93, -2.58, 2.99, 2.13, 10.08, repro,
1999-11-27,-0.46, 0.52, -10.81, 2.63, 1.88, 8.51, repro,
1999-11-28,0.32, 1.70, -13.95, 2.92, 2.07, 9.46, repro,
1999-11-29,-1.80, 2.58, -17.92, 2.75, 1.88, 8.83, repro,
1999-11-30,1.52, 0.20, -5.60, 2.93, 2.03, 9.66, repro,
1999-12-01,1.37, 2.57, -4.44, 3.08, 2.22, 10.09, repro,
1999-12-02,0.25, 0.16, -5.24, 2.67, 1.95, 8.95, repro,
1999-12-03,1.14, 1.53, -7.89, 2.82, 2.10, 9.61, repro,
1999-12-04,-0.23, 1.63, -9.71, 2.91, 2.05, 9.58, repro,
1999-12-05,0.63, 1.75, -6.11, 2.67, 1.87, 8.60, repro,
1999-12-06,0.70, 2.10, -8.53, 2.78, 1.99, 9.08, repro,
1999-12-07,0.91, 1.44, -6.79, 3.01, 2.22, 10.04, repro,
1999-12-08,1.08, 1.34, -17.60, 3.50, 2.43, 11.65, repro,
1999-12-09,-0.78, 1.93, -12.95, 2.92, 2.18, 9.83, repro,
1999-12-10,1.03, 3.03, -11.13, 2.78, 1.98, 9.09, repro,
1999-12-11,1.81, 1.83, -20.90, 3.09, 2.22, 10.45, repro,
1999-12-12,2.27, 1.62, -4.87, 3.14, 2.40, 11.02, repro,
1999-12-13,1.58, -0.56, -0.64, 3.18, 2.45, 11.30, repro,
1999-12-14,0.87, 2.22, -23.06, 2.87, 2.06, 9.38, repro,
1999-12-15,0.03, 2.15, -24.29, 3.01, 2.20, 10.38, repro,
1999-12-16,-0.51, 6.32, -15.83, 2.94, 2.11, 9.87, repro,
1999-12-17,0.27, 1.24, -11.27, 2.95, 2.18, 10.53, repro,
1999-12-18,-1.47, 0.61, -1.12, 3.36, 2.39, 11.35, repro,
1999-12-19,4.53, 0.95, -21.59, 2.89, 2.04, 9.54, repro,
1999-12-20,0.50, 2.06, -21.73, 2.75, 2.00, 9.24, repro,
1999-12-21,2.97, 1.94, -29.76, 2.79, 2.04, 9.31, repro,
1999-12-22,2.97, 2.81, -30.58, 2.96, 2.07, 9.39, repro,
1999-12-23,-0.55, 2.27, -26.33, 2.79, 2.17, 9.82, repro,
1999-12-24,3.26, 1.25, -33.34, 3.14, 2.36, 10.89, repro,
1999-12-25,2.25, 1.44, -34.10, 2.74, 2.10, 9.38, repro,
1999-12-26,2.08, 3.16, -22.57, 2.64, 1.97, 8.75, repro,
1999-12-27,2.35, 1.18, -21.82, 2.65, 2.02, 8.90, repro,
1999-12-28,0.51, 1.02, -21.12, 2.75, 1.97, 8.93, repro,
1999-12-29,3.81, 0.60, -26.51, 2.67, 2.00, 8.80, repro,
1999-12-30,2.50, 1.75, -9.85, 2.60, 1.94, 8.92, repro,
1999-12-31,0.49, 1.19, -23.75, 2.62, 1.91, 8.77, repro,
2000-01-01,3.60, 2.64, -10.22, 2.77, 1.97, 8.96, repro,
2000-01-02,2.94, 0.91, -5.11, 2.66, 1.91, 8.87, repro,
2000-01-03,2.34, 1.73, -15.18, 2.55, 1.85, 8.42, repro,
2000-01-04,-0.51, 2.05, -12.39, 2.68, 1.83, 8.48, repro,
2000-01-05,0.36, 3.98, -10.86, 2.81, 1.95, 9.14, repro,
2000-01-06,0.88, 1.47, -19.25, 2.51, 1.81, 8.43, repro,
2000-01-07,-0.62, 1.69, -18.06, 2.71, 1.95, 9.05, repro,
2000-01-08,2.10, 1.89, -18.12, 2.50, 1.84, 8.21, repro,
2000-01-09,-1.27, 3.11, -4.10, 2.40, 1.75, 8.02, repro,
2000-01-10,2.43, 2.64, -9.77, 2.49, 1.80, 8.21, repro,